Le nostre stazioni meteo in Italia

Pubblicità
Il mio iltempo24.it
Logan Botanic Garden, Gran Bretagna (99193): Temperatura & dewpoint: 14.04.2018 19:00:00 - 20.04.2018 19:00:00 (BST)Logan Botanic Garden, Gran Bretagna (99193): Temperatura -20cm: 14.04.2018 19:00:00 - 20.04.2018 19:00:00 (BST)Logan Botanic Garden, Gran Bretagna (99193): precipitazioni: 14.04.2018 19:00:00 - 20.04.2018 19:00:00 (BST)
Data & Tempo tt [°C] td [°C] tt -20cm [°C] rr [mm]
20.04.2018 19:00:00 - - - -
20.04.2018 18:00:00 10,4 7,1 - 0,0
20.04.2018 17:00:00 11,2 8,3 - 0,0
20.04.2018 16:00:00 11,9 8,4 - 0,0
20.04.2018 15:00:00 11,3 8,2 - 0,0
20.04.2018 14:00:00 10,5 7,8 - 0,0
20.04.2018 13:00:00 10,8 7,8 - 0,0
20.04.2018 12:00:00 11,3 7,6 - 0,0
20.04.2018 11:00:00 11,0 7,9 - 0,0
20.04.2018 10:00:00 10,9 7,7 9,5 0,0
20.04.2018 09:00:00 9,0 8,3 - 0,0
20.04.2018 08:00:00 7,4 7,2 - 0,0
20.04.2018 07:00:00 7,4 7,2 - 0,2
20.04.2018 06:00:00 8,0 7,8 - 0,0
20.04.2018 05:00:00 8,1 7,9 - 0,0
20.04.2018 04:00:00 8,2 8,0 - 0,0
20.04.2018 03:00:00 8,5 8,2 - 0,0
20.04.2018 02:00:00 8,6 8,1 - 0,0
20.04.2018 01:00:00 8,6 7,7 - 0,0
20.04.2018 00:00:00 9,1 8,7 - 0,0
19.04.2018 23:00:00 8,1 7,6 - 0,0
19.04.2018 22:00:00 8,6 7,6 - 0,0
19.04.2018 21:00:00 9,4 8,4 - 0,0
19.04.2018 20:00:00 9,4 8,5 - 0,0
19.04.2018 19:00:00 10,5 8,9 - 0,0
19.04.2018 18:00:00 11,4 9,3 - 0,0
19.04.2018 17:00:00 11,0 9,2 - 0,0
19.04.2018 16:00:00 11,7 9,8 - 0,0
19.04.2018 15:00:00 9,8 9,4 - 0,0
19.04.2018 14:00:00 9,1 8,9 - 0,0
19.04.2018 13:00:00 9,1 8,8 - 0,0
19.04.2018 12:00:00 8,8 8,4 - 0,0
19.04.2018 11:00:00 9,4 9,0 - 0,0
19.04.2018 10:00:00 9,7 9,3 9,2 0,0
19.04.2018 09:00:00 10,0 9,6 - 0,0
19.04.2018 08:00:00 - - - 0,0
19.04.2018 07:00:00 - - - -
19.04.2018 06:00:00 - - - -
19.04.2018 05:00:00 - - - -
19.04.2018 04:00:00 - - - -
19.04.2018 03:00:00 - - - -
19.04.2018 02:00:00 12,2 9,8 - 0,0
19.04.2018 01:00:00 11,5 7,5 - 0,0
19.04.2018 00:00:00 13,1 8,3 - 0,0
18.04.2018 23:00:00 13,2 8,4 - 0,0
18.04.2018 22:00:00 14,2 8,6 - 0,0
18.04.2018 21:00:00 14,8 10,2 - 0,0
18.04.2018 20:00:00 12,3 9,5 - 0,0
18.04.2018 19:00:00 13,1 10,3 - 0,0
18.04.2018 18:00:00 11,6 9,3 - 0,0
18.04.2018 17:00:00 13,6 9,5 - 0,0
18.04.2018 16:00:00 13,7 10,1 - 0,0
18.04.2018 15:00:00 12,6 9,9 - 0,0
18.04.2018 14:00:00 11,2 10,7 - 0,0
18.04.2018 13:00:00 10,1 9,8 - 0,0
18.04.2018 12:00:00 9,9 9,7 - 0,0
18.04.2018 11:00:00 9,6 9,5 - 0,0
18.04.2018 10:00:00 9,7 9,5 9,0 0,0
18.04.2018 09:00:00 9,6 9,5 - 0,0
18.04.2018 08:00:00 9,8 9,5 - 0,0
18.04.2018 07:00:00 9,9 9,6 - 0,0
18.04.2018 06:00:00 9,8 9,6 - 0,2
18.04.2018 05:00:00 9,4 9,2 - 0,0
18.04.2018 04:00:00 9,0 8,7 - 0,0
18.04.2018 03:00:00 9,2 8,9 - 0,0
18.04.2018 02:00:00 9,2 8,6 - 0,0
18.04.2018 01:00:00 9,5 8,7 - 0,0
18.04.2018 00:00:00 9,2 8,3 - 0,0
17.04.2018 23:00:00 9,3 8,3 - 0,0
17.04.2018 22:00:00 9,8 8,3 - 0,0
17.04.2018 21:00:00 9,6 8,2 - 0,0
17.04.2018 20:00:00 10,0 8,4 - 0,0
17.04.2018 19:00:00 10,3 8,4 - 0,0
17.04.2018 18:00:00 10,5 8,4 - 0,0
17.04.2018 17:00:00 10,7 8,3 - 0,0
17.04.2018 16:00:00 11,1 8,5 - 0,0
17.04.2018 15:00:00 11,0 8,4 - 0,0
17.04.2018 14:00:00 11,1 8,2 - 0,0
17.04.2018 13:00:00 11,1 8,5 - 0,0
17.04.2018 12:00:00 10,7 9,0 - 0,2
17.04.2018 11:00:00 9,7 8,9 - 0,0
17.04.2018 10:00:00 10,0 8,8 8,7 0,2
17.04.2018 09:00:00 9,5 8,5 - 0,0
17.04.2018 08:00:00 9,9 8,8 - 0,2
17.04.2018 07:00:00 9,7 8,8 - 0,8
17.04.2018 06:00:00 9,9 8,9 - 0,2
17.04.2018 05:00:00 9,7 8,8 - 0,0
17.04.2018 04:00:00 10,1 8,5 - 1,2
17.04.2018 03:00:00 10,1 8,0 - 0,2
17.04.2018 02:00:00 9,8 7,7 - 0,2
17.04.2018 01:00:00 10,1 7,0 - 0,0
17.04.2018 00:00:00 9,8 6,9 - 0,0
16.04.2018 23:00:00 9,4 7,0 - 0,2
16.04.2018 22:00:00 9,2 7,2 - 0,2
16.04.2018 21:00:00 9,7 6,6 - 0,0
16.04.2018 20:00:00 9,4 6,6 - 0,0
16.04.2018 19:00:00 9,6 6,1 - 0,0
16.04.2018 18:00:00 9,7 6,4 - 0,0
16.04.2018 17:00:00 9,6 6,6 - 0,0
16.04.2018 16:00:00 10,7 7,3 - 0,0
16.04.2018 15:00:00 10,2 7,2 - 0,0
16.04.2018 14:00:00 10,3 7,3 - 0,0
16.04.2018 13:00:00 10,0 6,5 - 0,0
16.04.2018 12:00:00 9,8 6,9 - 0,0
16.04.2018 11:00:00 9,8 7,1 - 0,0
16.04.2018 10:00:00 8,6 7,3 8,4 0,0
16.04.2018 09:00:00 8,0 7,2 - 0,0
16.04.2018 08:00:00 7,8 7,2 - 0,4
16.04.2018 07:00:00 7,9 7,2 - 0,0
16.04.2018 06:00:00 8,2 7,4 - 0,0
16.04.2018 05:00:00 8,3 7,2 - 0,0
16.04.2018 04:00:00 8,2 7,3 - 0,0
16.04.2018 03:00:00 8,5 7,6 - 0,0
16.04.2018 02:00:00 8,5 7,8 - 0,0
16.04.2018 01:00:00 8,5 8,1 - 0,2
16.04.2018 00:00:00 8,9 8,2 - 0,0
15.04.2018 23:00:00 7,9 6,9 - 0,0
15.04.2018 22:00:00 9,7 7,6 - 0,0
15.04.2018 21:00:00 9,9 7,9 - 0,0
15.04.2018 20:00:00 9,5 7,5 - 0,0
15.04.2018 19:00:00 9,1 7,7 - 0,2
15.04.2018 18:00:00 9,2 8,2 - 0,0
15.04.2018 17:00:00 9,2 7,6 - 0,0
15.04.2018 16:00:00 10,1 8,5 - 0,0
15.04.2018 15:00:00 9,8 8,5 - 0,0
15.04.2018 14:00:00 10,0 8,7 - 0,0
15.04.2018 13:00:00 9,7 8,3 - 0,2
15.04.2018 12:00:00 8,7 7,6 - 0,0
15.04.2018 11:00:00 8,4 7,0 - 0,0
15.04.2018 10:00:00 9,4 7,2 8,2 0,0
15.04.2018 09:00:00 9,4 7,1 - 0,0
15.04.2018 08:00:00 8,8 6,8 - 0,0
15.04.2018 07:00:00 8,8 6,6 - 0,0
15.04.2018 06:00:00 8,5 6,5 - 0,0
15.04.2018 05:00:00 8,8 6,6 - 0,0
15.04.2018 04:00:00 9,0 6,6 - 0,0
15.04.2018 03:00:00 9,0 6,5 - 0,0
15.04.2018 02:00:00 8,8 6,2 - 0,0
15.04.2018 01:00:00 8,6 5,5 - 0,0
15.04.2018 00:00:00 7,8 5,5 - 0,0
14.04.2018 23:00:00 6,2 5,2 - 0,0
14.04.2018 22:00:00 7,2 5,1 - 0,0
14.04.2018 21:00:00 7,5 5,3 - 0,0
14.04.2018 20:00:00 8,9 6,3 - 0,0
14.04.2018 19:00:00 9,8 6,8 - 0,0

tt = Temperatura
td = dewpoint
tt -20cm = Temperatura -20cm
rr = precipitazioni

Stazioni seguenti

WeatherPro
AMSI
MeteoEarth